Imperial, NE

7:07 PM MST on November 17, 2017 (GMT -0700)
Imperial Municipal

Weather History for KIML - December, 2012

Change the Weather History Date:

Wednesday, December 12, 2012

  Actual Average Record
Temperature  
Mean Temperature 38 °F 28 °F  
Max Temperature 61 °F 41 °F 65 °F (1921)
Min Temperature 14 °F 16 °F -24 °F (1932)
Degree Days  
Heating Degree Days 27 37  
Month to date heating degree days 338 424  
Cooling Degree Days 0 0  
Month to date cooling degree days 0 0  
Year to date cooling degree days 1382 963  
Moisture  
Dew Point 9 °F    
Average Humidity 39    
Maximum Humidity 67    
Minimum Humidity 11    
Precipitation  
Precipitation 0.00 in 0.00 in 0.62 in (1991)
Sea Level Pressure  
Sea Level Pressure 29.87 in    
Wind  
Wind Speed 6 mph (SSW)    
Max Wind Speed 16 mph    
Max Gust Speed 21 mph    
Visibility 10 miles    
Events      
T = Trace of Precipitation, MM = Missing Value Source: NWS Daily Summary

Daily Weather History Graph

Daily Weather History Graph

Search for Another Location

Airport or City:

Trip Planner

Search our weather history database for the weather conditions in past years. The results will help you decide how hot, cold, wet, or windy it might be!

Date:

Astronomy

Dec. 12, 2012 Rise Set
Actual Time 7:00 AM MST 4:20 PM MST
Civil Twilight 6:30 AM MST 4:50 PM MST
Nautical Twilight 5:55 AM MST 5:25 PM MST
Astronomical Twilight 5:22 AM MST 5:58 PM MST
Moon 6:07 AM MST (12/12) 3:59 PM MST (12/12)
Length of Visible Light 10h 20m
Length of Day
9h 19m
Waning Crescent, 0% of the Moon is Illuminated
Dec 12
Waning Crescent
Dec 13
New
Dec 19
First Quarter
Dec 28
Full
Jan 4
Last Quarter

Hourly Weather History & Observations

Time (MST) Temp. Windchill Dew Point Humidity Pressure Visibility Wind Dir Wind Speed Gust Speed Precip Events Conditions
12:53 AM 24.1 °F 16.0 °F 7.0 °F 48% 29.87 in 10.0 mi SW 6.9 mph - N/A   Clear
1:53 AM 23.0 °F 18.4 °F 6.1 °F 48% 29.87 in 10.0 mi WSW 3.5 mph - N/A   Clear
2:53 AM 19.9 °F 13.4 °F 5.0 °F 52% 29.86 in 10.0 mi SW 4.6 mph - N/A   Clear
3:53 AM 18.0 °F 7.7 °F 5.0 °F 57% 29.87 in 10.0 mi SW 8.1 mph - N/A   Clear
4:53 AM 16.0 °F - 5.0 °F 62% 29.90 in 10.0 mi Calm Calm - N/A   Clear
5:53 AM 17.1 °F - 7.0 °F 65% 29.91 in 10.0 mi Calm Calm - N/A   Clear
6:53 AM 16.0 °F 10.4 °F 7.0 °F 68% 29.92 in 10.0 mi WSW 3.5 mph - N/A   Clear
7:53 AM 21.9 °F - 9.0 °F 58% 29.91 in 10.0 mi Calm Calm - N/A   Clear
8:53 AM 27.0 °F - 10.9 °F 51% 29.93 in 10.0 mi Calm Calm - N/A   Clear
9:53 AM 41.0 °F 38.0 °F 12.9 °F 32% 29.89 in 10.0 mi SSW 4.6 mph - N/A   Clear
10:53 AM 50.0 °F - 12.9 °F 23% 29.85 in 10.0 mi South 9.2 mph - N/A   Clear
11:53 AM 57.0 °F - 10.9 °F 16% 29.79 in 10.0 mi South 12.7 mph - N/A   Clear
12:53 PM 60.1 °F - 7.0 °F 12% 29.77 in 10.0 mi SSW 10.4 mph - N/A   Clear
1:53 PM 60.1 °F - 10.0 °F 14% 29.76 in 10.0 mi South 11.5 mph - N/A   Clear
2:53 PM 61.0 °F - 10.0 °F 13% 29.77 in 10.0 mi South 15.0 mph - N/A   Clear
3:53 PM 52.0 °F - 10.0 °F 19% 29.81 in 10.0 mi SSE 8.1 mph - N/A   Clear
4:53 PM 39.9 °F 34.5 °F 9.0 °F 28% 29.85 in 10.0 mi SSE 8.1 mph - N/A   Clear
5:53 PM 36.0 °F 30.3 °F 10.0 °F 34% 29.87 in 10.0 mi SE 6.9 mph - N/A   Clear
6:53 PM 35.1 °F 28.6 °F 10.0 °F 35% 29.88 in 10.0 mi SE 8.1 mph - N/A   Clear
7:53 PM 30.9 °F 26.2 °F 10.0 °F 42% 29.90 in 10.0 mi WSW 4.6 mph - N/A   Clear
8:53 PM 30.9 °F - 10.0 °F 42% 29.91 in 10.0 mi Calm Calm - N/A   Clear
9:53 PM 23.0 °F 13.9 °F 8.1 °F 53% 29.93 in 10.0 mi SSE 8.1 mph - N/A   Clear
10:53 PM 26.1 °F 20.5 °F 10.0 °F 51% 29.93 in 10.0 mi SW 4.6 mph - N/A   Clear
11:53 PM 28.0 °F 20.0 °F 10.0 °F 47% 29.91 in 10.0 mi WSW 8.1 mph - N/A   Clear